| time (UTC) | temp F | wind direction | speed MPH | gust MPH | rain 1hr in | rain 24hr in | rain mn in | humidity % | barometer mb |
| 20260506154503 | 84 | 155 | 5.0 | 12.0 | 0.00 | 0.00 | 0.00 | 57 | 1016.1 |
| 20260506154004 | 84 | 230 | 6.0 | 12.0 | 0.00 | 0.00 | 0.00 | 58 | 1016.1 |
| 20260506153504 | 83 | 224 | 5.0 | 12.0 | 0.00 | 0.00 | 0.00 | 59 | 1016.1 |
| 20260506152504 | 83 | 158 | 2.0 | 9.0 | 0.00 | 0.00 | 0.00 | 62 | 1016.1 |
| 20260506152004 | 82 | 263 | 5.0 | 9.0 | 0.00 | 0.00 | 0.00 | 62 | 1016.1 |
| 20260506151504 | 82 | 233 | 5.0 | 9.0 | 0.00 | 0.00 | 0.00 | 62 | 1016.0 |
| 20260506151004 | 82 | 255 | 4.0 | 9.0 | 0.00 | 0.00 | 0.00 | 63 | 1016.0 |
| 20260506150504 | 82 | 217 | 4.0 | 7.0 | 0.00 | 0.00 | 0.00 | 63 | 1016.0 |
| 20260506150004 | 82 | 197 | 3.0 | 8.0 | 0.00 | 0.00 | 0.00 | 64 | 1016.0 |
| 20260506145004 | 81 | 170 | 3.0 | 10.0 | 0.00 | 0.00 | 0.00 | 66 | 1015.9 |
| 20260506144503 | 80 | 167 | 4.0 | 9.0 | 0.00 | 0.00 | 0.00 | 66 | 1015.8 |
| 20260506143503 | 80 | 192 | 2.0 | 9.0 | 0.00 | 0.00 | 0.00 | 68 | 1015.9 |
| 20260506143004 | 79 | 162 | 2.0 | 9.0 | 0.00 | 0.00 | 0.00 | 68 | 1015.9 |
| 20260506142004 | 79 | 170 | 5.0 | 9.0 | 0.00 | 0.00 | 0.00 | 68 | 1015.9 |
| 20260506141003 | 78 | 181 | 3.0 | 12.0 | 0.00 | 0.00 | 0.00 | 70 | 1015.9 |
| 20260506140503 | 78 | 209 | 4.0 | 12.0 | 0.00 | 0.00 | 0.00 | 70 | 1015.9 |
| 20260506135504 | 78 | 209 | 5.0 | 12.0 | 0.00 | 0.00 | 0.00 | 71 | 1016.0 |
| 20260506134503 | 77 | 163 | 4.0 | 9.0 | 0.00 | 0.00 | 0.00 | 72 | 1016.0 |
| 20260506134004 | 77 | 147 | 4.0 | 9.0 | 0.00 | 0.00 | 0.00 | 73 | 1016.1 |
| 20260506132504 | 75 | 232 | 3.0 | 10.0 | 0.00 | 0.00 | 0.00 | 75 | 1016.1 |
| 20260506132003 | 75 | 143 | 3.0 | 10.0 | 0.00 | 0.00 | 0.00 | 76 | 1016.1 |
| 20260506131504 | 74 | 230 | 5.0 | 9.0 | 0.00 | 0.00 | 0.00 | 76 | 1016.0 |
| 20260506131003 | 74 | 187 | 4.0 | 8.0 | 0.00 | 0.00 | 0.00 | 77 | 1015.9 |
| 20260506130505 | 73 | 175 | 4.0 | 8.0 | 0.00 | 0.00 | 0.00 | 78 | 1015.9 |
| 20260506130004 | 73 | 213 | 3.0 | 6.0 | 0.00 | 0.00 | 0.00 | 80 | 1015.9 |
| 20260506125503 | 72 | 22 | 1.0 | 6.0 | 0.00 | 0.00 | 0.00 | 82 | 1015.9 |
| 20260506125004 | 71 | 188 | 2.0 | 6.0 | 0.00 | 0.00 | 0.00 | 82 | 1015.8 |
| 20260506124004 | 70 | 141 | 0.0 | 2.0 | 0.00 | 0.00 | 0.00 | 86 | 1015.7 |
| 20260506123505 | 69 | 82 | 0.0 | 3.0 | 0.00 | 0.00 | 0.00 | 89 | 1015.6 |
| 20260506123004 | 67 | 180 | 1.0 | 3.0 | 0.00 | 0.00 | 0.00 | 91 | 1015.5 |
| 20260506122504 | 66 | 171 | 0.0 | 3.0 | 0.00 | 0.00 | 0.00 | 92 | 1015.4 |
| 20260506122004 | 65 | 143 | 1.0 | 3.0 | 0.00 | 0.00 | 0.00 | 93 | 1015.4 |
| 20260506121503 | 65 | 170 | 0.0 | 2.0 | 0.00 | 0.00 | 0.00 | 93 | 1015.3 |
| 20260506121004 | 65 | 126 | 0.0 | 1.0 | 0.00 | 0.00 | 0.00 | 93 | 1015.3 |
| 20260506120504 | 64 | 71 | 0.0 | 1.0 | 0.00 | 0.00 | 0.00 | 93 | 1015.3 |
| 20260506120004 | 64 | 71 | 0.0 | 1.0 | 0.00 | 0.00 | 0.00 | 93 | 1015.3 |
| 20260506115504 | 63 | 71 | 0.0 | 0.0 | 0.00 | 0.00 | 0.00 | 93 | 1015.3 |
| 20260506115004 | 63 | 71 | 0.0 | 0.0 | 0.00 | 0.00 | 0.00 | 93 | 1015.3 |
| 20260506114005 | 62 | 71 | 0.0 | 0.0 | 0.00 | 0.00 | 0.00 | 93 | 1015.2 |
| 20260506113004 | 61 | 71 | 0.0 | 0.0 | 0.00 | 0.00 | 0.00 | 93 | 1015.1 |
| 20260506112504 | 61 | 71 | 0.0 | 0.0 | 0.00 | 0.00 | 0.00 | 93 | 1015.1 |
| 20260506111504 | 61 | 71 | 0.0 | 0.0 | 0.00 | 0.00 | 0.00 | 93 | 1015.2 |
| 20260506111004 | 61 | 71 | 0.0 | 0.0 | 0.00 | 0.00 | 0.00 | 93 | 1015.2 |
| 20260506110004 | 61 | 71 | 0.0 | 0.0 | 0.00 | 0.00 | 0.00 | 93 | 1015.0 |
| 20260506105504 | 61 | 71 | 0.0 | 0.0 | 0.00 | 0.00 | 0.00 | 93 | 1014.9 |
| 20260506105004 | 61 | 71 | 0.0 | 0.0 | 0.00 | 0.00 | 0.00 | 93 | 1015.0 |
| 20260506104504 | 61 | 71 | 0.0 | 0.0 | 0.00 | 0.00 | 0.00 | 93 | 1014.8 |
| 20260506104004 | 61 | 71 | 0.0 | 0.0 | 0.00 | 0.00 | 0.00 | 92 | 1014.7 |
| 20260506103504 | 61 | 71 | 0.0 | 0.0 | 0.00 | 0.00 | 0.00 | 92 | 1014.7 |
| 20260506103004 | 61 | 71 | 0.0 | 0.0 | 0.00 | 0.00 | 0.00 | 92 | 1014.7 |
| 20260506102504 | 61 | 71 | 0.0 | 0.0 | 0.00 | 0.00 | 0.00 | 92 | 1014.6 |
| 20260506102004 | 61 | 71 | 0.0 | 0.0 | 0.00 | 0.00 | 0.00 | 92 | 1014.6 |
| 20260506101504 | 61 | 71 | 0.0 | 0.0 | 0.00 | 0.00 | 0.00 | 93 | 1014.6 |
| 20260506101004 | 61 | 71 | 0.0 | 1.0 | 0.00 | 0.00 | 0.00 | 93 | 1014.7 |
| 20260506100504 | 61 | 71 | 0.0 | 1.0 | 0.00 | 0.00 | 0.00 | 93 | 1014.7 |
| 20260506100004 | 61 | 71 | 0.0 | 0.0 | 0.00 | 0.00 | 0.00 | 93 | 1014.8 |
| 20260506095505 | 61 | 71 | 0.0 | 0.0 | 0.00 | 0.00 | 0.00 | 93 | 1014.9 |
| 20260506094504 | 61 | 71 | 0.0 | 0.0 | 0.00 | 0.00 | 0.00 | 92 | 1014.8 |
| 20260506094005 | 61 | 71 | 0.0 | 0.0 | 0.00 | 0.00 | 0.00 | 92 | 1014.8 |
| 20260506093504 | 61 | 71 | 0.0 | 0.0 | 0.00 | 0.00 | 0.00 | 92 | 1014.7 |
| 20260506093007 | 61 | 71 | 0.0 | 0.0 | 0.00 | 0.00 | 0.00 | 92 | 1014.7 |
| 20260506092503 | 61 | 71 | 0.0 | 0.0 | 0.00 | 0.00 | 0.00 | 92 | 1014.5 |
| 20260506092004 | 61 | 71 | 0.0 | 0.0 | 0.00 | 0.00 | 0.00 | 92 | 1014.4 |
| 20260506091504 | 61 | 71 | 0.0 | 0.0 | 0.00 | 0.00 | 0.00 | 92 | 1014.4 |
| 20260506091004 | 61 | 71 | 0.0 | 0.0 | 0.00 | 0.00 | 0.00 | 92 | 1014.2 |
| 20260506090503 | 61 | 71 | 0.0 | 1.0 | 0.00 | 0.00 | 0.00 | 92 | 1014.3 |
| 20260506090006 | 61 | 71 | 0.0 | 2.0 | 0.00 | 0.00 | 0.00 | 92 | 1014.3 |
| 20260506085504 | 61 | 71 | 1.0 | 2.0 | 0.00 | 0.00 | 0.00 | 92 | 1014.3 |
| 20260506085005 | 61 | 71 | 0.0 | 1.0 | 0.00 | 0.00 | 0.00 | 92 | 1014.4 |
| 20260506084504 | 61 | 71 | 0.0 | 0.0 | 0.00 | 0.00 | 0.00 | 92 | 1014.5 |
| 20260506084005 | 61 | 71 | 0.0 | 0.0 | 0.00 | 0.00 | 0.00 | 92 | 1014.5 |
| 20260506083504 | 61 | 71 | 0.0 | 0.0 | 0.00 | 0.00 | 0.00 | 92 | 1014.5 |
| 20260506081504 | 61 | 71 | 0.0 | 0.0 | 0.00 | 0.00 | 0.00 | 92 | 1014.4 |
| 20260506081004 | 61 | 71 | 0.0 | 0.0 | 0.00 | 0.00 | 0.00 | 92 | 1014.4 |
| 20260506080504 | 61 | 71 | 0.0 | 0.0 | 0.00 | 0.00 | 0.00 | 92 | 1014.5 |
| 20260506073504 | 61 | 71 | 0.0 | 0.0 | 0.00 | 0.00 | 0.00 | 91 | 1014.1 |
| 20260506073004 | 61 | 71 | 0.0 | 0.0 | 0.00 | 0.00 | 0.00 | 91 | 1014.0 |
| 20260506072504 | 61 | 71 | 0.0 | 0.0 | 0.00 | 0.00 | 0.00 | 91 | 1014.2 |
| 20260506071005 | 61 | 71 | 0.0 | 0.0 | 0.00 | 0.00 | 0.00 | 91 | 1014.4 |
| 20260506070504 | 62 | 71 | 0.0 | 0.0 | 0.00 | 0.00 | 0.00 | 91 | 1014.5 |
| 20260506062504 | 62 | 71 | 0.0 | 1.0 | 0.00 | 0.00 | 0.00 | 90 | 1014.8 |
| 20260506062003 | 62 | 71 | 0.0 | 1.0 | 0.00 | 0.00 | 0.00 | 90 | 1014.8 |
| 20260506061504 | 62 | 71 | 0.0 | 0.0 | 0.00 | 0.00 | 0.00 | 90 | 1014.9 |
| 20260506061004 | 62 | 71 | 0.0 | 0.0 | 0.00 | 0.00 | 0.00 | 90 | 1015.1 |
| 20260506051003 | 63 | 71 | 0.0 | 0.0 | 0.00 | 0.00 | 0.00 | 87 | 1015.4 |
| 20260506050503 | 63 | 71 | 0.0 | 0.0 | 0.00 | 0.00 | 0.00 | 87 | 1015.4 |
| 20260506045003 | 63 | 71 | 0.0 | 0.0 | 0.00 | 0.00 | 0.00 | 87 | 1015.5 |
| 20260506044504 | 63 | 71 | 0.0 | 0.0 | 0.00 | 0.00 | 0.00 | 86 | 1015.6 |
| 20260506044004 | 63 | 71 | 0.0 | 0.0 | 0.00 | 0.00 | 0.00 | 85 | 1015.6 |
| 20260506043004 | 63 | 71 | 0.0 | 0.0 | 0.00 | 0.00 | 0.00 | 85 | 1015.6 |
| 20260506042504 | 63 | 71 | 0.0 | 0.0 | 0.00 | 0.00 | 0.00 | 85 | 1015.6 |
| 20260506042004 | 64 | 71 | 0.0 | 0.0 | 0.00 | 0.00 | 0.00 | 85 | 1015.6 |
| 20260506041504 | 64 | 71 | 0.0 | 0.0 | 0.00 | 0.00 | 0.00 | 85 | 1015.7 |
| 20260506041005 | 64 | 71 | 0.0 | 0.0 | 0.00 | 0.00 | 0.00 | 85 | 1015.8 |
| 20260506040505 | 64 | 71 | 0.0 | 0.0 | 0.00 | 0.00 | 0.00 | 85 | 1015.9 |
| 20260506040004 | 64 | 71 | 0.0 | 0.0 | 0.00 | 0.00 | 0.00 | 84 | 1015.9 |
| 20260506035004 | 64 | 71 | 0.0 | 0.0 | 0.00 | 0.00 | 0.00 | 84 | 1015.8 |
| 20260506034505 | 64 | 71 | 0.0 | 0.0 | 0.00 | 0.00 | 0.00 | 84 | 1015.8 |
| 20260506034004 | 64 | 71 | 0.0 | 0.0 | 0.00 | 0.00 | 0.00 | 83 | 1015.7 |
| 20260506033004 | 65 | 71 | 0.0 | 1.0 | 0.00 | 0.00 | 0.00 | 83 | 1015.6 |
| 20260506032504 | 65 | 71 | 0.0 | 0.0 | 0.00 | 0.00 | 0.00 | 82 | 1015.5 |
| 20260506032003 | 65 | 71 | 0.0 | 0.0 | 0.00 | 0.00 | 0.00 | 81 | 1015.4 |
| 20260506031505 | 65 | 71 | 0.0 | 0.0 | 0.00 | 0.00 | 0.00 | 80 | 1015.3 |
| 20260506031004 | 66 | 71 | 0.0 | 1.0 | 0.00 | 0.00 | 0.00 | 80 | 1015.3 |
| 20260506030004 | 66 | 71 | 0.0 | 1.0 | 0.00 | 0.00 | 0.00 | 79 | 1015.3 |
| 20260506025505 | 66 | 71 | 0.0 | 0.0 | 0.00 | 0.00 | 0.00 | 77 | 1015.4 |
| 20260506025004 | 67 | 71 | 0.0 | 0.0 | 0.00 | 0.00 | 0.00 | 77 | 1015.3 |
| 20260506024503 | 67 | 71 | 0.0 | 0.0 | 0.00 | 0.00 | 0.00 | 76 | 1015.4 |
| 20260506024004 | 67 | 71 | 0.0 | 0.0 | 0.00 | 0.00 | 0.00 | 76 | 1015.4 |
| 20260506023504 | 68 | 71 | 0.0 | 1.0 | 0.00 | 0.00 | 0.00 | 75 | 1015.4 |
| 20260506023004 | 68 | 71 | 0.0 | 1.0 | 0.00 | 0.00 | 0.00 | 75 | 1015.3 |
| 20260506022503 | 68 | 71 | 0.0 | 0.0 | 0.00 | 0.00 | 0.00 | 73 | 1015.2 |
| 20260506022005 | 69 | 71 | 0.0 | 0.0 | 0.00 | 0.00 | 0.00 | 72 | 1015.1 |
| 20260506021003 | 69 | 71 | 0.0 | 1.0 | 0.00 | 0.00 | 0.00 | 71 | 1015.0 |
| 20260506020504 | 70 | 71 | 0.0 | 0.0 | 0.00 | 0.00 | 0.00 | 70 | 1015.0 |
| 20260506020004 | 70 | 71 | 0.0 | 0.0 | 0.00 | 0.00 | 0.00 | 69 | 1015.0 |
| 20260506015505 | 70 | 71 | 0.0 | 0.0 | 0.00 | 0.00 | 0.00 | 68 | 1014.9 |
| 20260506014503 | 71 | 71 | 0.0 | 3.0 | 0.00 | 0.00 | 0.00 | 67 | 1014.8 |
| 20260506014004 | 71 | 71 | 1.0 | 3.0 | 0.00 | 0.00 | 0.00 | 67 | 1014.7 |
| 20260506013505 | 71 | 140 | 0.0 | 1.0 | 0.00 | 0.00 | 0.00 | 67 | 1014.6 |
| 20260506012504 | 72 | 79 | 0.0 | 3.0 | 0.00 | 0.00 | 0.00 | 65 | 1014.6 |
| 20260506012004 | 72 | 79 | 1.0 | 3.0 | 0.00 | 0.00 | 0.00 | 65 | 1014.5 |
| 20260506011504 | 72 | 108 | 1.0 | 3.0 | 0.00 | 0.00 | 0.00 | 65 | 1014.5 |
| 20260506010504 | 72 | 89 | 1.0 | 3.0 | 0.00 | 0.00 | 0.00 | 64 | 1014.5 |
| 20260506005504 | 73 | 88 | 1.0 | 2.0 | 0.00 | 0.00 | 0.00 | 62 | 1014.6 |
| 20260506005003 | 73 | 87 | 0.0 | 7.0 | 0.00 | 0.00 | 0.00 | 61 | 1014.5 |
| 20260506004504 | 73 | 97 | 1.0 | 7.0 | 0.00 | 0.00 | 0.00 | 61 | 1014.5 |
| 20260506004003 | 73 | 95 | 2.0 | 7.0 | 0.00 | 0.00 | 0.00 | 60 | 1014.5 |
| 20260506003504 | 74 | 98 | 1.0 | 3.0 | 0.00 | 0.00 | 0.00 | 60 | 1014.4 |
| 20260506003004 | 74 | 91 | 2.0 | 5.0 | 0.00 | 0.00 | 0.00 | 60 | 1014.3 |
| 20260506002504 | 74 | 71 | 3.0 | 7.0 | 0.00 | 0.00 | 0.00 | 59 | 1014.3 |
| 20260506002003 | 74 | 117 | 3.0 | 7.0 | 0.00 | 0.00 | 0.00 | 59 | 1014.3 |
| 20260506001503 | 74 | 77 | 2.0 | 6.0 | 0.00 | 0.00 | 0.00 | 58 | 1014.2 |
| 20260506001004 | 75 | 92 | 2.0 | 7.0 | 0.00 | 0.00 | 0.00 | 58 | 1014.1 |
| 20260506000504 | 75 | 74 | 1.0 | 7.0 | 0.00 | 0.00 | 0.00 | 57 | 1014.0 |
| 20260506000004 | 75 | 101 | 1.0 | 8.0 | 0.00 | 0.00 | 0.00 | 56 | 1014.0 |
| 20260505235504 | 75 | 89 | 1.0 | 9.0 | 0.00 | 0.00 | 0.00 | 56 | 1013.9 |
| 20260505235004 | 76 | 94 | 5.0 | 9.0 | 0.00 | 0.00 | 0.00 | 55 | 1013.8 |
| 20260505234504 | 76 | 105 | 2.0 | 7.0 | 0.00 | 0.00 | 0.00 | 54 | 1013.9 |
| 20260505233504 | 76 | 80 | 2.0 | 8.0 | 0.00 | 0.00 | 0.00 | 52 | 1013.8 |
| 20260505233004 | 77 | 96 | 4.0 | 12.0 | 0.00 | 0.00 | 0.00 | 52 | 1013.8 |
| 20260505232504 | 77 | 91 | 4.0 | 12.0 | 0.00 | 0.00 | 0.00 | 51 | 1013.8 |
| 20260505232005 | 77 | 99 | 4.0 | 9.0 | 0.00 | 0.00 | 0.00 | 51 | 1013.8 |
| 20260505231504 | 78 | 102 | 4.0 | 9.0 | 0.00 | 0.00 | 0.00 | 50 | 1013.8 |
| 20260505231004 | 78 | 127 | 2.0 | 10.0 | 0.00 | 0.00 | 0.00 | 51 | 1013.8 |
| 20260505230503 | 78 | 91 | 4.0 | 12.0 | 0.00 | 0.00 | 0.00 | 50 | 1013.8 |
| 20260505230004 | 78 | 74 | 4.0 | 12.0 | 0.00 | 0.00 | 0.00 | 50 | 1013.7 |
| 20260505225504 | 78 | 119 | 5.0 | 9.0 | 0.00 | 0.00 | 0.00 | 49 | 1013.7 |
| 20260505225004 | 79 | 102 | 3.0 | 9.0 | 0.00 | 0.00 | 0.00 | 50 | 1013.8 |
| 20260505224504 | 79 | 74 | 3.0 | 12.0 | 0.00 | 0.00 | 0.00 | 49 | 1013.7 |
| 20260505224005 | 79 | 89 | 5.0 | 12.0 | 0.00 | 0.00 | 0.00 | 48 | 1013.7 |
| 20260505223504 | 80 | 93 | 3.0 | 10.0 | 0.00 | 0.00 | 0.00 | 49 | 1013.6 |
| 20260505223005 | 79 | 120 | 3.0 | 10.0 | 0.00 | 0.00 | 0.00 | 48 | 1013.6 |
| 20260505222504 | 80 | 128 | 5.0 | 15.0 | 0.00 | 0.00 | 0.00 | 49 | 1013.5 |
| 20260505222004 | 80 | 93 | 6.0 | 15.0 | 0.00 | 0.00 | 0.00 | 48 | 1013.6 |
| 20260505220503 | 80 | 90 | 7.0 | 14.0 | 0.00 | 0.00 | 0.00 | 47 | 1013.6 |
| 20260505220004 | 81 | 101 | 1.0 | 10.0 | 0.00 | 0.00 | 0.00 | 49 | 1013.6 |
| 20260505215004 | 81 | 94 | 5.0 | 12.0 | 0.00 | 0.00 | 0.00 | 47 | 1013.6 |
| 20260505214504 | 81 | 137 | 5.0 | 12.0 | 0.00 | 0.00 | 0.00 | 47 | 1013.5 |
| 20260505213504 | 82 | 124 | 3.0 | 12.0 | 0.00 | 0.00 | 0.00 | 48 | 1013.5 |
| 20260505213004 | 82 | 87 | 4.0 | 12.0 | 0.00 | 0.00 | 0.00 | 46 | 1013.6 |
| 20260505212505 | 82 | 98 | 6.0 | 12.0 | 0.00 | 0.00 | 0.00 | 46 | 1013.6 |
| 20260505211505 | 81 | 111 | 4.0 | 12.0 | 0.00 | 0.00 | 0.00 | 48 | 1013.7 |
| 20260505210505 | 81 | 92 | 3.0 | 12.0 | 0.00 | 0.00 | 0.00 | 47 | 1013.7 |
| 20260505210004 | 82 | 82 | 6.0 | 14.0 | 0.00 | 0.00 | 0.00 | 46 | 1013.7 |
| 20260505205504 | 82 | 79 | 6.0 | 14.0 | 0.00 | 0.00 | 0.00 | 45 | 1013.7 |
| 20260505204504 | 83 | 122 | 2.0 | 12.0 | 0.00 | 0.00 | 0.00 | 47 | 1013.7 |
| 20260505204003 | 83 | 103 | 7.0 | 12.0 | 0.00 | 0.00 | 0.00 | 46 | 1013.7 |
| 20260505203504 | 84 | 98 | 5.0 | 10.0 | 0.00 | 0.00 | 0.00 | 45 | 1013.7 |
| 20260505203004 | 84 | 110 | 4.0 | 12.0 | 0.00 | 0.00 | 0.00 | 46 | 1013.8 |
| 20260505202504 | 83 | 116 | 4.0 | 13.0 | 0.00 | 0.00 | 0.00 | 46 | 1013.9 |
| 20260505202006 | 83 | 121 | 6.0 | 13.0 | 0.00 | 0.00 | 0.00 | 46 | 1014.1 |
| 20260505195003 | 83 | 91 | 7.0 | 14.0 | 0.00 | 0.00 | 0.00 | 45 | 1014.1 |
| 20260505193504 | 85 | 121 | 5.0 | 12.0 | 0.00 | 0.00 | 0.00 | 45 | 1014.2 |
| 20260505193003 | 85 | 72 | 3.0 | 10.0 | 0.00 | 0.00 | 0.00 | 45 | 1014.2 |
| 20260505192504 | 85 | 83 | 5.0 | 10.0 | 0.00 | 0.00 | 0.00 | 44 | 1014.3 |
| 20260505192004 | 85 | 79 | 3.0 | 7.0 | 0.00 | 0.00 | 0.00 | 45 | 1014.3 |
| 20260505191505 | 84 | 326 | 2.0 | 8.0 | 0.00 | 0.00 | 0.00 | 44 | 1014.3 |
| 20260505190004 | 85 | 54 | 2.0 | 8.0 | 0.00 | 0.00 | 0.00 | 43 | 1014.6 |
| 20260505185504 | 85 | 66 | 4.0 | 7.0 | 0.00 | 0.00 | 0.00 | 40 | 1014.6 |
| 20260505185004 | 85 | 82 | 1.0 | 7.0 | 0.00 | 0.00 | 0.00 | 42 | 1014.7 |
| 20260505184504 | 84 | 342 | 1.0 | 9.0 | 0.00 | 0.00 | 0.00 | 42 | 1014.8 |
| 20260505184004 | 84 | 109 | 5.0 | 9.0 | 0.00 | 0.00 | 0.00 | 42 | 1014.8 |
| 20260505183004 | 85 | 103 | 3.0 | 7.0 | 0.00 | 0.00 | 0.00 | 42 | 1014.9 |
| 20260505182504 | 85 | 118 | 3.0 | 9.0 | 0.00 | 0.00 | 0.00 | 42 | 1015.0 |
| 20260505182004 | 85 | 2 | 2.0 | 9.0 | 0.00 | 0.00 | 0.00 | 44 | 1015.0 |
| 20260505181504 | 85 | 135 | 3.0 | 7.0 | 0.00 | 0.00 | 0.00 | 42 | 1015.0 |
| 20260505181005 | 84 | 82 | 1.0 | 10.0 | 0.00 | 0.00 | 0.00 | 44 | 1015.0 |
| 20260505180504 | 84 | 127 | 3.0 | 10.0 | 0.00 | 0.00 | 0.00 | 42 | 1015.1 |
| 20260505180004 | 85 | 331 | 2.0 | 8.0 | 0.00 | 0.00 | 0.00 | 41 | 1015.1 |
| 20260505175004 | 85 | 44 | 3.0 | 9.0 | 0.00 | 0.00 | 0.00 | 41 | 1015.2 |
| 20260505174505 | 85 | 41 | 2.0 | 9.0 | 0.00 | 0.00 | 0.00 | 42 | 1015.3 |
| 20260505174004 | 85 | 113 | 2.0 | 8.0 | 0.00 | 0.00 | 0.00 | 42 | 1015.5 |
| 20260505173504 | 85 | 136 | 2.0 | 7.0 | 0.00 | 0.00 | 0.00 | 42 | 1015.5 |
| 20260505173004 | 84 | 155 | 0.0 | 7.0 | 0.00 | 0.00 | 0.00 | 43 | 1015.5 |
| 20260505172504 | 84 | 98 | 3.0 | 7.0 | 0.00 | 0.00 | 0.00 | 43 | 1015.6 |
| 20260505172003 | 84 | 10 | 2.0 | 7.0 | 0.00 | 0.00 | 0.00 | 43 | 1015.5 |
| 20260505171503 | 83 | 119 | 3.0 | 8.0 | 0.00 | 0.00 | 0.00 | 45 | 1015.6 |
| 20260505171003 | 83 | 156 | 2.0 | 8.0 | 0.00 | 0.00 | 0.00 | 46 | 1015.7 |
| 20260505170505 | 83 | 82 | 3.0 | 8.0 | 0.00 | 0.00 | 0.00 | 45 | 1015.8 |
| 20260505170004 | 83 | 81 | 2.0 | 7.0 | 0.00 | 0.00 | 0.00 | 46 | 1015.7 |
| 20260505165504 | 83 | 310 | 2.0 | 7.0 | 0.00 | 0.00 | 0.00 | 46 | 1015.8 |
| 20260505164504 | 82 | 68 | 1.0 | 7.0 | 0.00 | 0.00 | 0.00 | 48 | 1016.0 |
| 20260505164004 | 82 | 105 | 3.0 | 7.0 | 0.00 | 0.00 | 0.00 | 46 | 1015.9 |
| 20260505163503 | 82 | 101 | 3.0 | 6.0 | 0.00 | 0.00 | 0.00 | 48 | 1016.0 |
| 20260505163004 | 82 | 64 | 1.0 | 3.0 | 0.00 | 0.00 | 0.00 | 48 | 1016.0 |
| 20260505162504 | 81 | 331 | 2.0 | 6.0 | 0.00 | 0.00 | 0.00 | 50 | 1016.0 |
| 20260505162003 | 81 | 58 | 2.0 | 7.0 | 0.00 | 0.00 | 0.00 | 50 | 1016.2 |
| 20260505161004 | 81 | 156 | 4.0 | 9.0 | 0.00 | 0.00 | 0.00 | 51 | 1016.1 |
| 20260505160504 | 80 | 176 | 3.0 | 7.0 | 0.00 | 0.00 | 0.00 | 51 | 1016.1 |